Regional Weather Roundup
Issued by NWS Albany, NY

Home | Current Version | Previous Version | Text Only | Print | Product List | Glossary On
Versions: 1 2 3 4 5 6 7 8 9 10 11 12 13 14 15 16 17 18 19 20 21 22 23 24 25 26 27 28
000
ASUS41 KALY 181210
RWRALY

NEW YORK STATE HOURLY WEATHER ROUNDUP
NATIONAL WEATHER SERVICE ALBANY NY
800 AM EDT FRI APR 18 2014

NOTE: "FAIR" INDICATES FEW OR NO CLOUDS BELOW 12,000 FEET WITH NO
SIGNIFICANT WEATHER AND/OR NO OBSTRUCTIONS TO VISIBILITY.

NYZ032-033-038>043-046>054-057>066-NYZ062>081-181300-
EAST


CITY           SKY/WX    TMP DP  RH WIND       PRES   REMARKS
ALBANY         MOSUNNY   34  21  59 S9        30.53R WCI  27
GLENS FALLS    SUNNY    N/A N/A N/A CALM      30.51S
POUGHKEEPSIE   MOSUNNY   35  25  66 SE8       30.55R WCI  29
NEWBURGH       MOSUNNY   34  27  75 SE6       30.55R WCI  29
MONTGOMERY     CLOUDY    34  28  79 CALM      30.54R
WHITE PLAINS   CLOUDY    33  25  72 E5        30.53R WCI  29
ISLIP          CLOUDY    37  28  70 N9        30.53R WCI  30
NEW YORK CITY  CLOUDY    36  26  67 NE9       30.56R WCI  29
CENTRAL PARK   PTSUNNY   37  27  67 N5        30.57R WCI  33
$$

NYZ005>009-017-018-044>046-055-056-181300-
CENTRAL


CITY           SKY/WX    TMP DP  RH WIND       PRES   REMARKS
FULTON         SUNNY     40  26  57 VRB7      30.39S
SYRACUSE       PTSUNNY   41  26  55 SE10      30.40F
ROME           SUNNY     35  25  66 E9        30.46S WCI  28
ELMIRA         MOSUNNY   37  27  67 CALM      30.43R
BINGHAMTON     MOSUNNY   32  27  81 S12       30.42R WCI  23
MONTICELLO     CLOUDY    30  28  93 SE5       30.49R WCI  25
$$

NYZ026>034-041>043-181300-
NORTH


CITY           SKY/WX    TMP DP  RH WIND       PRES   REMARKS
WATERTOWN      MOSUNNY   43  24  47 S8        30.37S
FORT DRUM      NOT AVBL
MASSENA        MOSUNNY   41  24  51 S6        30.40S
SARANAC LAKE   MOSUNNY   32  26  78 CALM      30.36F
PLATTSBURGH    MOSUNNY   37  21  52 CALM      30.45F
$$

NYZ001>004-010>016-019>021-181300-
WEST


CITY           SKY/WX    TMP DP  RH WIND       PRES   REMARKS
NIAGARA FALLS  CLOUDY    45  29  53 S13       30.28R
BUFFALO        CLOUDY    46  30  53 S9        30.29R
DUNKIRK        MOSUNNY   49  27  42 S20G33    30.28R
JAMESTOWN      MOSUNNY   37  27  65 S13       30.32S WCI  29
WELLSVILLE     MOSUNNY   37  28  70 VRB7      30.35R WCI  32
ROCHESTER      PTSUNNY   43  30  60 S7        30.33S
PENN YAN       SUNNY     39  29  67 S13       30.37R WCI  31
$$

             KEY
       WCI = WIND CHILL INDEX
       VSB = VISIBILITY
       HX  = HEAT INDEX
$$



USA.gov is the U.S. government's official web portal to all federal, state and local government web resources and services.